owner,sensor,date,latitude,longitude,sea_surface_height_above_sea_level,qcFlag 
COMPS,ioos:station:USF.COMPS:SHP:1,2009-10-01T00:00:00Z,30.0600,-84.2910,-0.277,1111122 
COMPS,ioos:station:USF.COMPS:SHP:1,2009-10-01T00:06:00Z,30.0600,-84.2910,-0.279,1111122 
COMPS,ioos:station:USF.COMPS:SHP:1,2009-10-01T00:12:00Z,30.0600,-84.2910,-0.276,1111122 
COMPS,ioos:station:USF.COMPS:SHP:1,2009-10-01T00:18:00Z,30.0600,-84.2910,-0.268,1111122 
COMPS,ioos:station:USF.COMPS:SHP:1,2009-10-01T00:24:00Z,30.0600,-84.2910,-0.257,1111122 
COMPS,ioos:station:USF.COMPS:SHP:1,2009-10-01T00:30:00Z,30.0600,-84.2910,-0.246,1111122 
COMPS,ioos:station:USF.COMPS:SHP:1,2009-10-01T00:36:00Z,30.0600,-84.2910,-0.233,1111122 
COMPS,ioos:station:USF.COMPS:SHP:1,2009-10-01T00:42:00Z,30.0600,-84.2910,-0.217,1111122 
COMPS,ioos:station:USF.COMPS:SHP:1,2009-10-01T00:48:00Z,30.0600,-84.2910,-0.207,1111122 
COMPS,ioos:station:USF.COMPS:SHP:1,2009-10-01T00:54:00Z,30.0600,-84.2910,-0.203,1111122 
COMPS,ioos:station:USF.COMPS:SHP:1,2009-10-01T01:00:00Z,30.0600,-84.2910,-0.197,1111122 
COMPS,ioos:station:USF.COMPS:SHP:1,2009-10-01T01:06:00Z,30.0600,-84.2910,-0.186,1111122 
COMPS,ioos:station:USF.COMPS:SHP:1,2009-10-01T01:12:00Z,30.0600,-84.2910,-0.172,1111122 
COMPS,ioos:station:USF.COMPS:SHP:1,2009-10-01T01:18:00Z,30.0600,-84.2910,-0.156,1111122 
COMPS,ioos:station:USF.COMPS:SHP:1,2009-10-01T01:24:00Z,30.0600,-84.2910,-0.135,1111122 
COMPS,ioos:station:USF.COMPS:SHP:1,2009-10-01T01:30:00Z,30.0600,-84.2910,-0.114,1111122 
COMPS,ioos:station:USF.COMPS:SHP:1,2009-10-01T01:36:00Z,30.0600,-84.2910,-0.1,1111122 
COMPS,ioos:station:USF.COMPS:SHP:1,2009-10-01T01:42:00Z,30.0600,-84.2910,-0.085,1111122 
COMPS,ioos:station:USF.COMPS:SHP:1,2009-10-01T01:48:00Z,30.0600,-84.2910,-0.071,1111122 
COMPS,ioos:station:USF.COMPS:SHP:1,2009-10-01T01:54:00Z,30.0600,-84.2910,-0.051,1111122 
COMPS,ioos:station:USF.COMPS:SHP:1,2009-10-01T02:00:00Z,30.0600,-84.2910,-0.026,1111122 
COMPS,ioos:station:USF.COMPS:SHP:1,2009-10-01T02:06:00Z,30.0600,-84.2910,-0.003,1111122 
COMPS,ioos:station:USF.COMPS:SHP:1,2009-10-01T02:12:00Z,30.0600,-84.2910,0.019,1111122 
COMPS,ioos:station:USF.COMPS:SHP:1,2009-10-01T02:18:00Z,30.0600,-84.2910,0.033,1111122 
COMPS,ioos:station:USF.COMPS:SHP:1,2009-10-01T02:24:00Z,30.0600,-84.2910,0.048,1111122 
COMPS,ioos:station:USF.COMPS:SHP:1,2009-10-01T02:30:00Z,30.0600,-84.2910,0.067,1111122 
COMPS,ioos:station:USF.COMPS:SHP:1,2009-10-01T02:36:00Z,30.0600,-84.2910,0.087,1111122 
COMPS,ioos:station:USF.COMPS:SHP:1,2009-10-01T02:42:00Z,30.0600,-84.2910,0.112,1111122 
COMPS,ioos:station:USF.COMPS:SHP:1,2009-10-01T02:48:00Z,30.0600,-84.2910,0.136,1111122 
COMPS,ioos:station:USF.COMPS:SHP:1,2009-10-01T02:54:00Z,30.0600,-84.2910,0.156,1111122 
COMPS,ioos:station:USF.COMPS:SHP:1,2009-10-01T03:00:00Z,30.0600,-84.2910,0.177,1111122 
COMPS,ioos:station:USF.COMPS:SHP:1,2009-10-01T03:06:00Z,30.0600,-84.2910,0.195,1111122 
COMPS,ioos:station:USF.COMPS:SHP:1,2009-10-01T03:12:00Z,30.0600,-84.2910,0.21,1111122 
COMPS,ioos:station:USF.COMPS:SHP:1,2009-10-01T03:18:00Z,30.0600,-84.2910,0.227,1111122 
COMPS,ioos:station:USF.COMPS:SHP:1,2009-10-01T03:24:00Z,30.0600,-84.2910,0.247,1111122 
COMPS,ioos:station:USF.COMPS:SHP:1,2009-10-01T03:30:00Z,30.0600,-84.2910,0.263,1111122 
COMPS,ioos:station:USF.COMPS:SHP:1,2009-10-01T03:36:00Z,30.0600,-84.2910,0.28,1111122 
COMPS,ioos:station:USF.COMPS:SHP:1,2009-10-01T03:42:00Z,30.0600,-84.2910,0.299,1111122 
COMPS,ioos:station:USF.COMPS:SHP:1,2009-10-01T03:48:00Z,30.0600,-84.2910,0.318,1111122 
COMPS,ioos:station:USF.COMPS:SHP:1,2009-10-01T03:54:00Z,30.0600,-84.2910,0.331,1111122 
COMPS,ioos:station:USF.COMPS:SHP:1,2009-10-01T04:00:00Z,30.0600,-84.2910,0.347,1111122 
COMPS,ioos:station:USF.COMPS:SHP:1,2009-10-01T04:06:00Z,30.0600,-84.2910,0.366,1111122 
COMPS,ioos:station:USF.COMPS:SHP:1,2009-10-01T04:12:00Z,30.0600,-84.2910,0.376,1111122 
COMPS,ioos:station:USF.COMPS:SHP:1,2009-10-01T04:18:00Z,30.0600,-84.2910,0.387,1111122 
COMPS,ioos:station:USF.COMPS:SHP:1,2009-10-01T04:24:00Z,30.0600,-84.2910,0.398,1111122 
COMPS,ioos:station:USF.COMPS:SHP:1,2009-10-01T04:30:00Z,30.0600,-84.2910,0.408,1111122 
COMPS,ioos:station:USF.COMPS:SHP:1,2009-10-01T04:36:00Z,30.0600,-84.2910,0.42,1111122 
COMPS,ioos:station:USF.COMPS:SHP:1,2009-10-01T04:42:00Z,30.0600,-84.2910,0.433,1111122 
COMPS,ioos:station:USF.COMPS:SHP:1,2009-10-01T04:48:00Z,30.0600,-84.2910,0.442,1111122 
COMPS,ioos:station:USF.COMPS:SHP:1,2009-10-01T04:54:00Z,30.0600,-84.2910,0.44,1111122 
COMPS,ioos:station:USF.COMPS:SHP:1,2009-10-01T05:00:00Z,30.0600,-84.2910,0.444,1111122 
COMPS,ioos:station:USF.COMPS:SHP:1,2009-10-01T05:06:00Z,30.0600,-84.2910,0.451,1111122 
COMPS,ioos:station:USF.COMPS:SHP:1,2009-10-01T05:12:00Z,30.0600,-84.2910,0.462,1111122 
COMPS,ioos:station:USF.COMPS:SHP:1,2009-10-01T05:18:00Z,30.0600,-84.2910,0.469,1111122 
COMPS,ioos:station:USF.COMPS:SHP:1,2009-10-01T05:24:00Z,30.0600,-84.2910,0.471,1111122 
COMPS,ioos:station:USF.COMPS:SHP:1,2009-10-01T05:30:00Z,30.0600,-84.2910,0.47,1111122 
COMPS,ioos:station:USF.COMPS:SHP:1,2009-10-01T05:36:00Z,30.0600,-84.2910,0.472,1111122 
COMPS,ioos:station:USF.COMPS:SHP:1,2009-10-01T05:42:00Z,30.0600,-84.2910,0.477,1111122 
COMPS,ioos:station:USF.COMPS:SHP:1,2009-10-01T05:48:00Z,30.0600,-84.2910,0.471,1111122 
COMPS,ioos:station:USF.COMPS:SHP:1,2009-10-01T05:54:00Z,30.0600,-84.2910,0.463,1111122 
COMPS,ioos:station:USF.COMPS:SHP:1,2009-10-01T06:00:00Z,30.0600,-84.2910,0.467,1111122 
COMPS,ioos:station:USF.COMPS:SHP:1,2009-10-01T06:06:00Z,30.0600,-84.2910,0.463,1111122 
COMPS,ioos:station:USF.COMPS:SHP:1,2009-10-01T06:12:00Z,30.0600,-84.2910,0.453,1111122 
COMPS,ioos:station:USF.COMPS:SHP:1,2009-10-01T06:18:00Z,30.0600,-84.2910,0.456,1111122 
COMPS,ioos:station:USF.COMPS:SHP:1,2009-10-01T06:24:00Z,30.0600,-84.2910,0.449,1111122 
COMPS,ioos:station:USF.COMPS:SHP:1,2009-10-01T06:30:00Z,30.0600,-84.2910,0.446,1111122 
COMPS,ioos:station:USF.COMPS:SHP:1,2009-10-01T06:36:00Z,30.0600,-84.2910,0.445,1111122 
COMPS,ioos:station:USF.COMPS:SHP:1,2009-10-01T06:42:00Z,30.0600,-84.2910,0.435,1111122 
COMPS,ioos:station:USF.COMPS:SHP:1,2009-10-01T06:48:00Z,30.0600,-84.2910,0.419,1111122 
COMPS,ioos:station:USF.COMPS:SHP:1,2009-10-01T06:54:00Z,30.0600,-84.2910,0.416,1111122 
COMPS,ioos:station:USF.COMPS:SHP:1,2009-10-01T07:00:00Z,30.0600,-84.2910,0.41,1111122 
COMPS,ioos:station:USF.COMPS:SHP:1,2009-10-01T07:06:00Z,30.0600,-84.2910,0.395,1111122 
COMPS,ioos:station:USF.COMPS:SHP:1,2009-10-01T07:12:00Z,30.0600,-84.2910,0.377,1111122 
COMPS,ioos:station:USF.COMPS:SHP:1,2009-10-01T07:18:00Z,30.0600,-84.2910,0.371,1111122 
COMPS,ioos:station:USF.COMPS:SHP:1,2009-10-01T07:24:00Z,30.0600,-84.2910,0.361,1111122 
COMPS,ioos:station:USF.COMPS:SHP:1,2009-10-01T07:30:00Z,30.0600,-84.2910,0.348,1111122 
COMPS,ioos:station:USF.COMPS:SHP:1,2009-10-01T07:36:00Z,30.0600,-84.2910,0.336,1111122 
COMPS,ioos:station:USF.COMPS:SHP:1,2009-10-01T07:42:00Z,30.0600,-84.2910,0.32,1111122 
COMPS,ioos:station:USF.COMPS:SHP:1,2009-10-01T07:48:00Z,30.0600,-84.2910,0.302,1111122 
COMPS,ioos:station:USF.COMPS:SHP:1,2009-10-01T07:54:00Z,30.0600,-84.2910,0.285,1111122 
COMPS,ioos:station:USF.COMPS:SHP:1,2009-10-01T08:00:00Z,30.0600,-84.2910,0.268,1111122 
COMPS,ioos:station:USF.COMPS:SHP:1,2009-10-01T08:06:00Z,30.0600,-84.2910,0.254,1111122 
COMPS,ioos:station:USF.COMPS:SHP:1,2009-10-01T08:12:00Z,30.0600,-84.2910,0.243,1111122 
COMPS,ioos:station:USF.COMPS:SHP:1,2009-10-01T08:18:00Z,30.0600,-84.2910,0.226,1111122 
COMPS,ioos:station:USF.COMPS:SHP:1,2009-10-01T08:24:00Z,30.0600,-84.2910,0.209,1111122 
COMPS,ioos:station:USF.COMPS:SHP:1,2009-10-01T08:30:00Z,30.0600,-84.2910,0.191,1111122 
COMPS,ioos:station:USF.COMPS:SHP:1,2009-10-01T08:36:00Z,30.0600,-84.2910,0.17,1111122 
COMPS,ioos:station:USF.COMPS:SHP:1,2009-10-01T08:42:00Z,30.0600,-84.2910,0.152,1111122 
COMPS,ioos:station:USF.COMPS:SHP:1,2009-10-01T08:48:00Z,30.0600,-84.2910,0.139,1111122 
COMPS,ioos:station:USF.COMPS:SHP:1,2009-10-01T08:54:00Z,30.0600,-84.2910,0.127,1111122 
COMPS,ioos:station:USF.COMPS:SHP:1,2009-10-01T09:00:00Z,30.0600,-84.2910,0.11,1111122 
COMPS,ioos:station:USF.COMPS:SHP:1,2009-10-01T09:06:00Z,30.0600,-84.2910,0.093,1111122 
COMPS,ioos:station:USF.COMPS:SHP:1,2009-10-01T09:12:00Z,30.0600,-84.2910,0.076,1111122 
COMPS,ioos:station:USF.COMPS:SHP:1,2009-10-01T09:18:00Z,30.0600,-84.2910,0.058,1111122 
COMPS,ioos:station:USF.COMPS:SHP:1,2009-10-01T09:24:00Z,30.0600,-84.2910,0.041,1111122 
COMPS,ioos:station:USF.COMPS:SHP:1,2009-10-01T09:30:00Z,30.0600,-84.2910,0.026,1111122 
COMPS,ioos:station:USF.COMPS:SHP:1,2009-10-01T09:36:00Z,30.0600,-84.2910,0.013,1111122 
COMPS,ioos:station:USF.COMPS:SHP:1,2009-10-01T09:42:00Z,30.0600,-84.2910,0.003,1111122 
COMPS,ioos:station:USF.COMPS:SHP:1,2009-10-01T09:48:00Z,30.0600,-84.2910,-0.008,1111122 
COMPS,ioos:station:USF.COMPS:SHP:1,2009-10-01T09:54:00Z,30.0600,-84.2910,-0.018,1111122 
COMPS,ioos:station:USF.COMPS:SHP:1,2009-10-01T10:00:00Z,30.0600,-84.2910,-0.03,1111122 
COMPS,ioos:station:USF.COMPS:SHP:1,2009-10-01T10:06:00Z,30.0600,-84.2910,-0.044,1111122 
COMPS,ioos:station:USF.COMPS:SHP:1,2009-10-01T10:12:00Z,30.0600,-84.2910,-0.055,1111122 
COMPS,ioos:station:USF.COMPS:SHP:1,2009-10-01T10:18:00Z,30.0600,-84.2910,-0.065,1111122 
COMPS,ioos:station:USF.COMPS:SHP:1,2009-10-01T10:24:00Z,30.0600,-84.2910,-0.074,1111122 
COMPS,ioos:station:USF.COMPS:SHP:1,2009-10-01T10:30:00Z,30.0600,-84.2910,-0.079,1111122 
COMPS,ioos:station:USF.COMPS:SHP:1,2009-10-01T10:36:00Z,30.0600,-84.2910,-0.083,1111122 
COMPS,ioos:station:USF.COMPS:SHP:1,2009-10-01T10:42:00Z,30.0600,-84.2910,-0.093,1111122 
COMPS,ioos:station:USF.COMPS:SHP:1,2009-10-01T10:48:00Z,30.0600,-84.2910,-0.106,1111122 
COMPS,ioos:station:USF.COMPS:SHP:1,2009-10-01T10:54:00Z,30.0600,-84.2910,-0.118,1111122 
COMPS,ioos:station:USF.COMPS:SHP:1,2009-10-01T11:00:00Z,30.0600,-84.2910,-0.123,1111122 
COMPS,ioos:station:USF.COMPS:SHP:1,2009-10-01T11:06:00Z,30.0600,-84.2910,-0.127,1111122 
COMPS,ioos:station:USF.COMPS:SHP:1,2009-10-01T11:12:00Z,30.0600,-84.2910,-0.124,1111122 
COMPS,ioos:station:USF.COMPS:SHP:1,2009-10-01T11:18:00Z,30.0600,-84.2910,-0.117,1111122 
COMPS,ioos:station:USF.COMPS:SHP:1,2009-10-01T11:24:00Z,30.0600,-84.2910,-0.114,1111122 
COMPS,ioos:station:USF.COMPS:SHP:1,2009-10-01T11:30:00Z,30.0600,-84.2910,-0.118,1111122 
COMPS,ioos:station:USF.COMPS:SHP:1,2009-10-01T11:36:00Z,30.0600,-84.2910,-0.122,1111122 
COMPS,ioos:station:USF.COMPS:SHP:1,2009-10-01T11:42:00Z,30.0600,-84.2910,-0.12,1111122 
COMPS,ioos:station:USF.COMPS:SHP:1,2009-10-01T11:48:00Z,30.0600,-84.2910,-0.113,1111122 
COMPS,ioos:station:USF.COMPS:SHP:1,2009-10-01T11:54:00Z,30.0600,-84.2910,-0.111,1111122 
COMPS,ioos:station:USF.COMPS:SHP:1,2009-10-01T12:00:00Z,30.0600,-84.2910,-0.107,1111122 
COMPS,ioos:station:USF.COMPS:SHP:1,2009-10-01T12:06:00Z,30.0600,-84.2910,-0.098,1111122 
COMPS,ioos:station:USF.COMPS:SHP:1,2009-10-01T12:12:00Z,30.0600,-84.2910,-0.094,1111122 
COMPS,ioos:station:USF.COMPS:SHP:1,2009-10-01T12:18:00Z,30.0600,-84.2910,-0.091,1111122 
COMPS,ioos:station:USF.COMPS:SHP:1,2009-10-01T12:24:00Z,30.0600,-84.2910,-0.085,1111122 
COMPS,ioos:station:USF.COMPS:SHP:1,2009-10-01T12:30:00Z,30.0600,-84.2910,-0.078,1111122 
COMPS,ioos:station:USF.COMPS:SHP:1,2009-10-01T12:36:00Z,30.0600,-84.2910,-0.074,1111122 
COMPS,ioos:station:USF.COMPS:SHP:1,2009-10-01T12:42:00Z,30.0600,-84.2910,-0.065,1111122 
COMPS,ioos:station:USF.COMPS:SHP:1,2009-10-01T12:48:00Z,30.0600,-84.2910,-0.052,1111122 
COMPS,ioos:station:USF.COMPS:SHP:1,2009-10-01T12:54:00Z,30.0600,-84.2910,-0.04,1111122 
COMPS,ioos:station:USF.COMPS:SHP:1,2009-10-01T13:00:00Z,30.0600,-84.2910,-0.027,1111122 
COMPS,ioos:station:USF.COMPS:SHP:1,2009-10-01T13:06:00Z,30.0600,-84.2910,-0.015,1111122 
COMPS,ioos:station:USF.COMPS:SHP:1,2009-10-01T13:12:00Z,30.0600,-84.2910,-0.005,1111122 
COMPS,ioos:station:USF.COMPS:SHP:1,2009-10-01T13:18:00Z,30.0600,-84.2910,0.005,1111122 
COMPS,ioos:station:USF.COMPS:SHP:1,2009-10-01T13:24:00Z,30.0600,-84.2910,0.018,1111122 
COMPS,ioos:station:USF.COMPS:SHP:1,2009-10-01T13:30:00Z,30.0600,-84.2910,0.035,1111122 
COMPS,ioos:station:USF.COMPS:SHP:1,2009-10-01T13:36:00Z,30.0600,-84.2910,0.049,1111122 
COMPS,ioos:station:USF.COMPS:SHP:1,2009-10-01T13:42:00Z,30.0600,-84.2910,0.065,1111122 
COMPS,ioos:station:USF.COMPS:SHP:1,2009-10-01T13:48:00Z,30.0600,-84.2910,0.081,1111122 
COMPS,ioos:station:USF.COMPS:SHP:1,2009-10-01T13:54:00Z,30.0600,-84.2910,0.098,1111122 
COMPS,ioos:station:USF.COMPS:SHP:1,2009-10-01T14:00:00Z,30.0600,-84.2910,0.115,1111122 
COMPS,ioos:station:USF.COMPS:SHP:1,2009-10-01T14:06:00Z,30.0600,-84.2910,0.135,1111122 
COMPS,ioos:station:USF.COMPS:SHP:1,2009-10-01T14:12:00Z,30.0600,-84.2910,0.152,1111122 
COMPS,ioos:station:USF.COMPS:SHP:1,2009-10-01T14:18:00Z,30.0600,-84.2910,0.174,1111122 
COMPS,ioos:station:USF.COMPS:SHP:1,2009-10-01T14:24:00Z,30.0600,-84.2910,0.197,1111122 
COMPS,ioos:station:USF.COMPS:SHP:1,2009-10-01T14:30:00Z,30.0600,-84.2910,0.216,1111122 
COMPS,ioos:station:USF.COMPS:SHP:1,2009-10-01T14:36:00Z,30.0600,-84.2910,0.231,1111122 
COMPS,ioos:station:USF.COMPS:SHP:1,2009-10-01T14:42:00Z,30.0600,-84.2910,0.247,1111122 
COMPS,ioos:station:USF.COMPS:SHP:1,2009-10-01T14:48:00Z,30.0600,-84.2910,0.264,1111122 
COMPS,ioos:station:USF.COMPS:SHP:1,2009-10-01T14:54:00Z,30.0600,-84.2910,0.281,1111122 
COMPS,ioos:station:USF.COMPS:SHP:1,2009-10-01T15:00:00Z,30.0600,-84.2910,0.302,1111122 
COMPS,ioos:station:USF.COMPS:SHP:1,2009-10-01T15:06:00Z,30.0600,-84.2910,0.326,1111122 
COMPS,ioos:station:USF.COMPS:SHP:1,2009-10-01T15:12:00Z,30.0600,-84.2910,0.349,1111122 
COMPS,ioos:station:USF.COMPS:SHP:1,2009-10-01T15:18:00Z,30.0600,-84.2910,0.367,1111122 
COMPS,ioos:station:USF.COMPS:SHP:1,2009-10-01T15:24:00Z,30.0600,-84.2910,0.383,1111122 
COMPS,ioos:station:USF.COMPS:SHP:1,2009-10-01T15:30:00Z,30.0600,-84.2910,0.397,1111122 
COMPS,ioos:station:USF.COMPS:SHP:1,2009-10-01T15:36:00Z,30.0600,-84.2910,0.414,1111122 
COMPS,ioos:station:USF.COMPS:SHP:1,2009-10-01T15:42:00Z,30.0600,-84.2910,0.436,1111122 
COMPS,ioos:station:USF.COMPS:SHP:1,2009-10-01T15:48:00Z,30.0600,-84.2910,0.459,1111122 
COMPS,ioos:station:USF.COMPS:SHP:1,2009-10-01T15:54:00Z,30.0600,-84.2910,0.481,1111122 
COMPS,ioos:station:USF.COMPS:SHP:1,2009-10-01T16:00:00Z,30.0600,-84.2910,0.502,1111122 
COMPS,ioos:station:USF.COMPS:SHP:1,2009-10-01T16:06:00Z,30.0600,-84.2910,0.516,1111122 
COMPS,ioos:station:USF.COMPS:SHP:1,2009-10-01T16:12:00Z,30.0600,-84.2910,0.522,1111122 
COMPS,ioos:station:USF.COMPS:SHP:1,2009-10-01T16:18:00Z,30.0600,-84.2910,0.53,1111122 
COMPS,ioos:station:USF.COMPS:SHP:1,2009-10-01T16:24:00Z,30.0600,-84.2910,0.549,1111122 
COMPS,ioos:station:USF.COMPS:SHP:1,2009-10-01T16:30:00Z,30.0600,-84.2910,0.568,1111122 
COMPS,ioos:station:USF.COMPS:SHP:1,2009-10-01T16:36:00Z,30.0600,-84.2910,0.578,1111122 
COMPS,ioos:station:USF.COMPS:SHP:1,2009-10-01T16:42:00Z,30.0600,-84.2910,0.591,1111122 
COMPS,ioos:station:USF.COMPS:SHP:1,2009-10-01T16:48:00Z,30.0600,-84.2910,0.6,1111122 
COMPS,ioos:station:USF.COMPS:SHP:1,2009-10-01T16:54:00Z,30.0600,-84.2910,0.606,1111122 
COMPS,ioos:station:USF.COMPS:SHP:1,2009-10-01T17:00:00Z,30.0600,-84.2910,0.618,1111122 
COMPS,ioos:station:USF.COMPS:SHP:1,2009-10-01T17:06:00Z,30.0600,-84.2910,0.629,1111122 
COMPS,ioos:station:USF.COMPS:SHP:1,2009-10-01T17:12:00Z,30.0600,-84.2910,0.629,1111122 
COMPS,ioos:station:USF.COMPS:SHP:1,2009-10-01T17:18:00Z,30.0600,-84.2910,0.632,1111122 
COMPS,ioos:station:USF.COMPS:SHP:1,2009-10-01T17:24:00Z,30.0600,-84.2910,0.634,1111122 
COMPS,ioos:station:USF.COMPS:SHP:1,2009-10-01T17:30:00Z,30.0600,-84.2910,0.633,1111122 
COMPS,ioos:station:USF.COMPS:SHP:1,2009-10-01T17:36:00Z,30.0600,-84.2910,0.638,1111122 
COMPS,ioos:station:USF.COMPS:SHP:1,2009-10-01T17:42:00Z,30.0600,-84.2910,0.643,1111122 
COMPS,ioos:station:USF.COMPS:SHP:1,2009-10-01T17:48:00Z,30.0600,-84.2910,0.639,1111122 
COMPS,ioos:station:USF.COMPS:SHP:1,2009-10-01T17:54:00Z,30.0600,-84.2910,0.642,1111122 
COMPS,ioos:station:USF.COMPS:SHP:1,2009-10-01T18:00:00Z,30.0600,-84.2910,0.635,1111122 
COMPS,ioos:station:USF.COMPS:SHP:1,2009-10-01T18:06:00Z,30.0600,-84.2910,0.618,1111122 
COMPS,ioos:station:USF.COMPS:SHP:1,2009-10-01T18:12:00Z,30.0600,-84.2910,0.618,1111122 
COMPS,ioos:station:USF.COMPS:SHP:1,2009-10-01T18:18:00Z,30.0600,-84.2910,0.621,1111122 
COMPS,ioos:station:USF.COMPS:SHP:1,2009-10-01T18:24:00Z,30.0600,-84.2910,0.61,1111122 
COMPS,ioos:station:USF.COMPS:SHP:1,2009-10-01T18:30:00Z,30.0600,-84.2910,0.6,1111122 
COMPS,ioos:station:USF.COMPS:SHP:1,2009-10-01T18:36:00Z,30.0600,-84.2910,0.586,1111122 
COMPS,ioos:station:USF.COMPS:SHP:1,2009-10-01T18:42:00Z,30.0600,-84.2910,0.563,1111122 
COMPS,ioos:station:USF.COMPS:SHP:1,2009-10-01T18:48:00Z,30.0600,-84.2910,0.559,1111122 
COMPS,ioos:station:USF.COMPS:SHP:1,2009-10-01T18:54:00Z,30.0600,-84.2910,0.555,1111122 
COMPS,ioos:station:USF.COMPS:SHP:1,2009-10-01T19:00:00Z,30.0600,-84.2910,0.534,1111122 
COMPS,ioos:station:USF.COMPS:SHP:1,2009-10-01T19:06:00Z,30.0600,-84.2910,0.523,1111122 
COMPS,ioos:station:USF.COMPS:SHP:1,2009-10-01T19:12:00Z,30.0600,-84.2910,0.51,1111122 
COMPS,ioos:station:USF.COMPS:SHP:1,2009-10-01T19:18:00Z,30.0600,-84.2910,0.49,1111122 
COMPS,ioos:station:USF.COMPS:SHP:1,2009-10-01T19:24:00Z,30.0600,-84.2910,0.475,1111122 
COMPS,ioos:station:USF.COMPS:SHP:1,2009-10-01T19:30:00Z,30.0600,-84.2910,0.464,1111122 
COMPS,ioos:station:USF.COMPS:SHP:1,2009-10-01T19:36:00Z,30.0600,-84.2910,0.445,1111122 
COMPS,ioos:station:USF.COMPS:SHP:1,2009-10-01T19:42:00Z,30.0600,-84.2910,0.424,1111122 
COMPS,ioos:station:USF.COMPS:SHP:1,2009-10-01T19:48:00Z,30.0600,-84.2910,0.409,1111122 
COMPS,ioos:station:USF.COMPS:SHP:1,2009-10-01T19:54:00Z,30.0600,-84.2910,0.389,1111122 
COMPS,ioos:station:USF.COMPS:SHP:1,2009-10-01T20:00:00Z,30.0600,-84.2910,0.367,1111122 
COMPS,ioos:station:USF.COMPS:SHP:1,2009-10-01T20:06:00Z,30.0600,-84.2910,0.351,1111122 
COMPS,ioos:station:USF.COMPS:SHP:1,2009-10-01T20:12:00Z,30.0600,-84.2910,0.335,1111122 
COMPS,ioos:station:USF.COMPS:SHP:1,2009-10-01T20:18:00Z,30.0600,-84.2910,0.308,1111122 
COMPS,ioos:station:USF.COMPS:SHP:1,2009-10-01T20:24:00Z,30.0600,-84.2910,0.28,1111122 
COMPS,ioos:station:USF.COMPS:SHP:1,2009-10-01T20:30:00Z,30.0600,-84.2910,0.26,1111122 
COMPS,ioos:station:USF.COMPS:SHP:1,2009-10-01T20:36:00Z,30.0600,-84.2910,0.24,1111122 
COMPS,ioos:station:USF.COMPS:SHP:1,2009-10-01T20:42:00Z,30.0600,-84.2910,0.219,1111122 
COMPS,ioos:station:USF.COMPS:SHP:1,2009-10-01T20:48:00Z,30.0600,-84.2910,0.197,1111122 
COMPS,ioos:station:USF.COMPS:SHP:1,2009-10-01T20:54:00Z,30.0600,-84.2910,0.176,1111122 
COMPS,ioos:station:USF.COMPS:SHP:1,2009-10-01T21:00:00Z,30.0600,-84.2910,0.152,1111122 
COMPS,ioos:station:USF.COMPS:SHP:1,2009-10-01T21:06:00Z,30.0600,-84.2910,0.129,1111122 
COMPS,ioos:station:USF.COMPS:SHP:1,2009-10-01T21:12:00Z,30.0600,-84.2910,0.106,1111122 
COMPS,ioos:station:USF.COMPS:SHP:1,2009-10-01T21:18:00Z,30.0600,-84.2910,0.087,1111122 
COMPS,ioos:station:USF.COMPS:SHP:1,2009-10-01T21:24:00Z,30.0600,-84.2910,0.065,1111122 
COMPS,ioos:station:USF.COMPS:SHP:1,2009-10-01T21:30:00Z,30.0600,-84.2910,0.044,1111122 
COMPS,ioos:station:USF.COMPS:SHP:1,2009-10-01T21:36:00Z,30.0600,-84.2910,0.023,1111122 
COMPS,ioos:station:USF.COMPS:SHP:1,2009-10-01T21:42:00Z,30.0600,-84.2910,0.003,1111122 
COMPS,ioos:station:USF.COMPS:SHP:1,2009-10-01T21:48:00Z,30.0600,-84.2910,-0.016,1111122 
COMPS,ioos:station:USF.COMPS:SHP:1,2009-10-01T21:54:00Z,30.0600,-84.2910,-0.037,1111122 
COMPS,ioos:station:USF.COMPS:SHP:1,2009-10-01T22:00:00Z,30.0600,-84.2910,-0.056,1111122 
COMPS,ioos:station:USF.COMPS:SHP:1,2009-10-01T22:06:00Z,30.0600,-84.2910,-0.077,1111122 
COMPS,ioos:station:USF.COMPS:SHP:1,2009-10-01T22:12:00Z,30.0600,-84.2910,-0.097,1111122 
COMPS,ioos:station:USF.COMPS:SHP:1,2009-10-01T22:18:00Z,30.0600,-84.2910,-0.118,1111122 
COMPS,ioos:station:USF.COMPS:SHP:1,2009-10-01T22:24:00Z,30.0600,-84.2910,-0.139,1111122 
COMPS,ioos:station:USF.COMPS:SHP:1,2009-10-01T22:30:00Z,30.0600,-84.2910,-0.153,1111122 
COMPS,ioos:station:USF.COMPS:SHP:1,2009-10-01T22:36:00Z,30.0600,-84.2910,-0.161,1111122 
COMPS,ioos:station:USF.COMPS:SHP:1,2009-10-01T22:42:00Z,30.0600,-84.2910,-0.17,1111122 
COMPS,ioos:station:USF.COMPS:SHP:1,2009-10-01T22:48:00Z,30.0600,-84.2910,-0.186,1111122 
COMPS,ioos:station:USF.COMPS:SHP:1,2009-10-01T22:54:00Z,30.0600,-84.2910,-0.201,1111122 
COMPS,ioos:station:USF.COMPS:SHP:1,2009-10-01T23:00:00Z,30.0600,-84.2910,-0.215,1111122 
COMPS,ioos:station:USF.COMPS:SHP:1,2009-10-01T23:06:00Z,30.0600,-84.2910,-0.226,1111122 
COMPS,ioos:station:USF.COMPS:SHP:1,2009-10-01T23:12:00Z,30.0600,-84.2910,-0.235,1111122 
COMPS,ioos:station:USF.COMPS:SHP:1,2009-10-01T23:18:00Z,30.0600,-84.2910,-0.24,1111122 
COMPS,ioos:station:USF.COMPS:SHP:1,2009-10-01T23:24:00Z,30.0600,-84.2910,-0.245,1111122 
COMPS,ioos:station:USF.COMPS:SHP:1,2009-10-01T23:30:00Z,30.0600,-84.2910,-0.246,1111122 
COMPS,ioos:station:USF.COMPS:SHP:1,2009-10-01T23:36:00Z,30.0600,-84.2910,-0.245,1111122 
COMPS,ioos:station:USF.COMPS:SHP:1,2009-10-01T23:42:00Z,30.0600,-84.2910,-0.245,1111122 
COMPS,ioos:station:USF.COMPS:SHP:1,2009-10-01T23:48:00Z,30.0600,-84.2910,-0.252,1111122 
COMPS,ioos:station:USF.COMPS:SHP:1,2009-10-01T23:54:00Z,30.0600,-84.2910,-0.26,1111122 
COMPS,ioos:station:USF.COMPS:SHP:1,2009-10-02T00:00:00Z,30.0600,-84.2910,-0.261,1111122 
COMPS,ioos:station:USF.COMPS:SHP:1,2009-10-02T00:06:00Z,30.0600,-84.2910,-0.259,1111122 
COMPS,ioos:station:USF.COMPS:SHP:1,2009-10-02T00:12:00Z,30.0600,-84.2910,-0.26,1111122 
COMPS,ioos:station:USF.COMPS:SHP:1,2009-10-02T00:18:00Z,30.0600,-84.2910,-0.261,1111122 
COMPS,ioos:station:USF.COMPS:SHP:1,2009-10-02T00:24:00Z,30.0600,-84.2910,-0.258,1111122 
COMPS,ioos:station:USF.COMPS:SHP:1,2009-10-02T00:30:00Z,30.0600,-84.2910,-0.257,1111122 
COMPS,ioos:station:USF.COMPS:SHP:1,2009-10-02T00:36:00Z,30.0600,-84.2910,-0.254,1111122 
COMPS,ioos:station:USF.COMPS:SHP:1,2009-10-02T00:42:00Z,30.0600,-84.2910,-0.249,1111122 
COMPS,ioos:station:USF.COMPS:SHP:1,2009-10-02T00:48:00Z,30.0600,-84.2910,-0.241,1111122 
COMPS,ioos:station:USF.COMPS:SHP:1,2009-10-02T00:54:00Z,30.0600,-84.2910,-0.232,1111122 
COMPS,ioos:station:USF.COMPS:SHP:1,2009-10-02T01:00:00Z,30.0600,-84.2910,-0.224,1111122 
COMPS,ioos:station:USF.COMPS:SHP:1,2009-10-02T01:06:00Z,30.0600,-84.2910,-0.215,1111122 
COMPS,ioos:station:USF.COMPS:SHP:1,2009-10-02T01:12:00Z,30.0600,-84.2910,-0.202,1111122 
COMPS,ioos:station:USF.COMPS:SHP:1,2009-10-02T01:18:00Z,30.0600,-84.2910,-0.186,1111122 
COMPS,ioos:station:USF.COMPS:SHP:1,2009-10-02T01:24:00Z,30.0600,-84.2910,-0.168,1111122 
COMPS,ioos:station:USF.COMPS:SHP:1,2009-10-02T01:30:00Z,30.0600,-84.2910,-0.151,1111122 
COMPS,ioos:station:USF.COMPS:SHP:1,2009-10-02T01:36:00Z,30.0600,-84.2910,-0.133,1111122 
COMPS,ioos:station:USF.COMPS:SHP:1,2009-10-02T01:42:00Z,30.0600,-84.2910,-0.117,1111122 
COMPS,ioos:station:USF.COMPS:SHP:1,2009-10-02T01:48:00Z,30.0600,-84.2910,-0.098,1111122 
COMPS,ioos:station:USF.COMPS:SHP:1,2009-10-02T01:54:00Z,30.0600,-84.2910,-0.078,1111122 
COMPS,ioos:station:USF.COMPS:SHP:1,2009-10-02T02:00:00Z,30.0600,-84.2910,-0.057,1111122 
COMPS,ioos:station:USF.COMPS:SHP:1,2009-10-02T02:06:00Z,30.0600,-84.2910,-0.032,1111122 
COMPS,ioos:station:USF.COMPS:SHP:1,2009-10-02T02:12:00Z,30.0600,-84.2910,-0.005,1111122 
COMPS,ioos:station:USF.COMPS:SHP:1,2009-10-02T02:18:00Z,30.0600,-84.2910,0.018,1111122 
COMPS,ioos:station:USF.COMPS:SHP:1,2009-10-02T02:24:00Z,30.0600,-84.2910,0.039,1111122 
COMPS,ioos:station:USF.COMPS:SHP:1,2009-10-02T02:30:00Z,30.0600,-84.2910,0.059,1111122 
COMPS,ioos:station:USF.COMPS:SHP:1,2009-10-02T02:36:00Z,30.0600,-84.2910,0.079,1111122 
COMPS,ioos:station:USF.COMPS:SHP:1,2009-10-02T02:42:00Z,30.0600,-84.2910,0.103,1111122 
COMPS,ioos:station:USF.COMPS:SHP:1,2009-10-02T02:48:00Z,30.0600,-84.2910,0.126,1111122 
COMPS,ioos:station:USF.COMPS:SHP:1,2009-10-02T02:54:00Z,30.0600,-84.2910,0.144,1111122 